Regional Weather Roundup
Issued by NWS Newport/Morehead, NC

Current Version | Previous Version | Text Only | Print | Product List | Glossary Off
Versions: 1 2 3 4 5 6 7 8 9 10 11 12 13 14 15 16 17 18 19 20 21 22 23 24 25 26 27 28 29 30 31 32 33 34 35 36 37 38 39 40 41 42 43 44 45 46 47 48 49 50
000 ASUS42 KMHX 010122 RWRMHX WEATHER ROUNDUP FOR EASTERN NORTH CAROLINA NATIONAL WEATHER SERVICE NEWPORT/MOREHEAD CITY NC 900 PM EDT TUE SEP 30 2014 NOTE: "FAIR" INDICATES FEW OR NO CLOUDS BELOW 12,000 FEET WITH NO SIGNIFICANT WEATHER AND/OR OBSTRUCTIONS TO VISIBILITY NCZ015>017-031-032-045>047-102-103-010200- NORTH COAST CITY SKY/WX TMP DP RH WIND PRES REMARKS EDENTON FAIR 64 62 91 CALM 29.89S ELIZABETH CITY FAIR 67 64 90 NE5 29.89R KITTY HAWK FAIR 68 64 85 CALM 29.87R MANTEO FAIR 68 64 86 NE7 29.88S $$ NCZ045>047-081-094-103-104-010200- CENTRAL COAST CITY SKY/WX TMP DP RH WIND PRES REMARKS FRISCO FAIR 68 64 87 NE9 29.86R SWANQUARTER N/A 66 N/A N/A NE3 29.85S $$ NCZ095-097-098-100-101-010200- SOUTHERN COAST CITY SKY/WX TMP DP RH WIND PRES REMARKS BEAUFORT FAIR 68 65 90 NE5 29.87R CEDAR ISLAND N/A 72 N/A N/A N12 29.91S JACKSONVILLE FAIR 68 64 87 CALM 29.87R NEWPORT NOT AVBL PINEY ISLAND FAIR 74 63 68 NE10 29.87R WILMINGTON FAIR 69 66 90 CALM 29.87R $$ NCZ011>013-027>030-043-044-078>080-089-090>093-098-010200- COASTAL PLAIN CITY SKY/WX TMP DP RH WIND PRES REMARKS AHOSKIE FAIR 62 60 96 CALM 29.91R FOG CLINTON FAIR 66 65 98 CALM 29.90R ELIZABETHTOWN FAIR 68 66 93 CALM 29.89R GOLDSBORO FAIR 68 68 98 CALM 29.88R GREENVILLE FAIR 66 64 94 CALM 29.92R HAVELOCK FAIR 68 65 90 CALM 29.88R KENANSVILLE FAIR 65 63 94 CALM 29.90S KINSTON FAIR 68 64 88 N5 29.90R NEW BERN FAIR 68 65 90 CALM 29.89R RICHLANDS FAIR 66 61 82 CALM 29.89R ROANOKE RAPIDS NOT AVBL ROCKY MOUNT FOG 61 60 97 CALM 29.91R VSB 1/4 WASHINGTON FAIR 66 64 93 CALM 29.90R WHITEVILLE FAIR 67 65 92 CALM 29.89R $$ AMZ130-135-150-152-154-156-158-170-250-252-270-ANZ085-086-088-633-658-670-010200- MARINE OBSERVATIONS STATION/POSITION TIME TEMP WIND PRES WAVE SWELL AIR SEA DIR/SP/G HT/PER HT/PER (UTC) (F) (DEG/KT/KT) (MB) (FT/S) (FT/S) CHESAPEAKE LIGHT 0100 70 50/ 9/ 10 1012.8 BUOY 44014 0100 71 74 20/ 10/ 12 1010.8 2/ 8 2/ 8 DUCK 0100 71 73 30/ 10/ 10 1010.8 2E DUCK 0100 N/A 2/ 7 OREGON INLET 0100 70 74 10/ 9/ 11 1011.3 BUOY 44095 0100 74 N/A 3/ 8 20E OREGON INLET NOT AVBL HATTERAS CG 0100 72 76 30/ 12/ 16 1011.6 DIAMOND BUOY 0100 72 350/ 17/ 21 1010.4 4/ 6 2/ 9 CAPE LOOKOUT 0100 72 20/ 10/ 13 1011.2 BEAUFORT LAB 0100 70 75 20/ 4/ 4 1010.9 30 SE NEW RIVER 0100 76 80 30/ 14/ 16 1010.5 3/ 5 2/ 8 5 SE WRIGHTSVILL 0000 72 76 70/ 6/ 8 N/A BUOY 41002 NOT AVBL BUOY 41004 0100 77 81 30/ 10/ 12 1011.1 4/ 6 3/ 6 $$

USA.gov is the U.S. government's official web portal to all federal, state and local government web resources and services.